Back to catalog

LES 9

AliveMilitaryGEO
NORAD 8747·PAYLOAD·🇺🇸 United States

Launched Mar 15, 1976 from Cape Canaveral Space Force Station

Loading…

TLE

FreshSource: Space-Track

Epoch: Sep 14, 2026, 10:33 UTC

1 08747U 76023B   26257.43999645 -.00000124  00000-0  00000-0 0  9993
2 08747  22.5144  35.8977 0024153 184.8564 187.5475  1.00270050130574

Track LES 9 in real time with AllMySat

Download on the App Store